This is the latest recevied weather packets stored in our database for station/object K1RFS. If no packets are shown the sender has not sent any weather packets the latest 10 day(s).
| Time | Temp. | Humidity | Pressure | Rain* | Wind** | Luminosity | Snow |
|---|---|---|---|---|---|---|---|
| 1788380797 | 28.89° C | 20% | 999.8 hPa | 0 mm | - | 584 W/m² | - |
| 1788380474 | 28.89° C | 22% | 999.7 hPa | 0 mm | - | 589 W/m² | - |
| 1788380169 | 28.89° C | 22% | 999.7 hPa | 0 mm | - | 592 W/m² | - |
| 1788379868 | 28.33° C | 21% | 999.8 hPa | 0 mm | - | 599 W/m² | - |
| 1788379564 | 28.33° C | 22% | 999.8 hPa | 0 mm | - | 596 W/m² | - |
| 1788379260 | 28.33° C | 22% | 999.8 hPa | 0 mm | - | 597 W/m² | - |
| 1788378955 | 28.33° C | 22% | 999.8 hPa | 0 mm | - | 597 W/m² | - |
| 1788378654 | 28.33° C | 21% | 999.8 hPa | 0 mm | - | 596 W/m² | - |
| 1788378353 | 28.33° C | 21% | 999.9 hPa | 0 mm | - | 597 W/m² | - |
| 1788378049 | 27.78° C | 24% | 1000.1 hPa | 0 mm | - | 598 W/m² | - |
| 1788377745 | 27.78° C | 24% | 1000.2 hPa | 0 mm | - | 595 W/m² | - |
| 1788377444 | 27.22° C | 25% | 1000.2 hPa | 0 mm | - | 598 W/m² | - |
| 1788377143 | 27.78° C | 25% | 1000.5 hPa | 0 mm | - | 596 W/m² | - |
| 1788376842 | 27.22° C | 24% | 1000.2 hPa | 0 mm | - | 595 W/m² | - |
| 1788376538 | 27.22° C | 23% | 1000.6 hPa | 0 mm | - | 596 W/m² | - |
| 1788376232 | 27.22° C | 26% | 1000.4 hPa | 0 mm | - | 593 W/m² | - |
| 1788375927 | 27.22° C | 26% | 1000.5 hPa | 0 mm | - | 585 W/m² | - |
| 1788375623 | 26.67° C | 26% | 1000.6 hPa | 0 mm | - | 574 W/m² | - |
| 1788375319 | 26.67° C | 26% | 1000.5 hPa | 0 mm | - | 577 W/m² | - |
| 1788375015 | 26.67° C | 27% | 1000.6 hPa | 0 mm | - | 567 W/m² | - |
| 1788374709 | 27.22° C | 27% | 1000.7 hPa | 0 mm | - | 564 W/m² | - |
| 1788374404 | 26.67° C | 27% | 1000.6 hPa | 0 mm | - | 568 W/m² | - |
| 1788374101 | 26.67° C | 28% | 1000.8 hPa | 0 mm | - | 563 W/m² | - |
| 1788373797 | 26.11° C | 28% | 1000.9 hPa | 0 mm | - | 552 W/m² | - |
| 1788373493 | 26.11° C | 29% | 1001 hPa | 0 mm | - | 551 W/m² | - |
* Rain latest hour (hover to see other rain measurements)
** Current wind speed in m/s (hover to see current wind gust speed)